Home   Weather   Greater Sudbury   Past weeks

Flag for Canada Past Weather in Greater Sudbury, Ontario, Canada — Yesterday and Last 2 Weeks

Now
41 °F

Scattered clouds.


Feels Like: 32 °F
Forecast: 33 / 49 °F
Wind: 21 mph from Northwest

Location: Sudbury

Current Time: Apr 29, 2017 at 11:47:45 am

Latest Report: Apr 29, 2017 at 11:00 am


Visibility: 20 mi

Pressure: 30.15 "Hg

Humidity: 49%

Dew Point: 23 °F

Location of Greater SudburyLocation

Past Weather in Greater Sudbury — Graph

°F

Greater Sudbury Temperature Yesterday

Maximum temperature yesterday: 48 °F (at 4:00 pm)
Minimum temperature yesterday: 36 °F (at 10:00 pm)
Average temperature yesterday: 42 °F

High & Low Weather Summary for the Past Weeks

 TemperatureHumidityPressure
High79 °F (Apr 27, 4:00 pm)100% (Apr 15, 3:52 pm)30.48 "Hg (Apr 15, 3:52 pm)
Low23 °F (Apr 18, 5:00 am)23% (Apr 14, 4:00 pm)29.42 "Hg (Apr 27, 4:00 pm)
Average42 °F71%29.99 "Hg
* Reported Apr 14 10:00 am — Apr 29 10:00 am, Greater Sudbury, Weather by CustomWeather, © 2017

Note: Actual official high and low records may vary slightly from our data, if they occured in-between our weather recording intervals... More about our weather records

Advertising

Greater Sudbury Weather History for the Previous 24 Hours

Scroll right to see more
 ConditionsComfort  
Time TempWeatherWind HumidityBarometerVisibility
10:00 am
Sat, Apr 29
46 °FScattered clouds.N/A37%30.12 "Hg20 mi
9:00 am34 °FPartly sunny.18 mph60%30.11 "Hg20 mi
8:00 am32 °FPartly sunny.13 mph60%30.14 "Hg20 mi
7:00 am32 °FScattered clouds.13 mph60%30.07 "Hg20 mi
6:00 am34 °FPassing clouds.13 mph65%30.03 "Hg20 mi
5:00 am34 °FPassing clouds.12 mph70%29.98 "Hg15 mi
4:00 am34 °FPartly cloudy.9 mph70%29.98 "Hg15 mi
3:00 am36 °FPassing clouds.10 mph65%29.96 "Hg15 mi
2:00 am36 °FPassing clouds.9 mph70%29.98 "Hg15 mi
1:00 am36 °FPassing clouds.7 mph70%29.98 "Hg15 mi
12:00 am36 °FPassing clouds.7 mph75%29.97 "Hg15 mi
11:00 pm
Fri, Apr 28
36 °FPassing clouds.6 mph81%29.95 "Hg15 mi
10:00 pm36 °FPassing clouds.5 mph81%29.94 "Hg15 mi
9:00 pm39 °FPassing clouds.6 mph70%29.93 "Hg20 mi
8:00 pm41 °FScattered clouds.8 mph70%29.92 "Hg20 mi
7:00 pm43 °FPartly sunny.12 mph71%29.92 "Hg20 mi
6:00 pm45 °FPartly sunny.14 mph66%29.91 "Hg20 mi
5:00 pm48 °FPartly sunny.17 mph58%29.89 "Hg20 mi
4:00 pm48 °FPartly sunny.23 mph58%29.88 "Hg20 mi
3:00 pm46 °FPartly sunny.17 mph62%29.88 "Hg20 mi
2:00 pm45 °FOvercast.25 mph66%29.88 "Hg20 mi
1:00 pm45 °FOvercast.21 mph71%29.86 "Hg20 mi
12:00 pm45 °FOvercast.24 mph66%29.85 "Hg20 mi
11:00 am45 °FSprinkles. Overcast.18 mph76%29.83 "Hg15 mi
Weather by CustomWeather, © 2017

See weather overviewHow to use our weather pages